Time,TemperatureF,DewpointF,PressureIn,WindDirection,WindDirectionDegrees,WindSpeedMPH,WindSpeedGustMPH,Humidity,HourlyPrecipIn,Conditions,Clouds,dailyrainin,SoftwareType,DateUTC
2013-09-10 00:00:00,58.5,53.7,30.18,ESE,116,0.0,0.0,84,0.00,,OVC065,0.00,VWS V14.01,2013-09-10 04:00:00,
2013-09-10 00:01:00,58.5,53.5,30.18,ESE,116,0.0,0.0,83,0.00,,OVC065,0.00,VWS V14.01,2013-09-10 04:01:00,
2013-09-10 00:07:00,58.6,53.7,30.18,ESE,116,0.0,0.0,83,0.00,,OVC065,0.00,VWS V14.01,2013-09-10 04:07:00,
2013-09-10 00:12:00,58.8,54.1,30.18,ESE,116,0.0,0.0,84,0.00,,OVC065,0.00,VWS V14.01,2013-09-10 04:12:00,
2013-09-10 00:17:00,58.8,54.3,30.18,ESE,116,0.0,0.0,85,0.00,,OVC065,0.00,VWS V14.01,2013-09-10 04:17:00,
2013-09-10 00:21:00,58.8,54.1,30.18,ESE,116,0.0,0.0,84,0.00,,OVC065,0.00,VWS V14.01,2013-09-10 04:21:00,
2013-09-10 00:26:00,59.0,54.2,30.18,ESE,116,0.0,0.0,84,0.00,,OVC065,0.00,VWS V14.01,2013-09-10 04:26:00,
2013-09-10 00:31:00,59.2,54.4,30.18,ESE,116,0.0,0.0,84,0.00,,OVC065,0.00,VWS V14.01,2013-09-10 04:31:00,
2013-09-10 00:36:00,59.2,54.2,30.18,ESE,116,0.0,0.0,83,0.00,,OVC065,0.00,VWS V14.01,2013-09-10 04:36:00,
2013-09-10 00:41:00,59.4,54.4,30.18,ESE,116,0.0,0.0,83,0.00,,OVC065,0.00,VWS V14.01,2013-09-10 04:41:00,
2013-09-10 00:46:00,59.5,54.5,30.18,ESE,116,0.0,0.0,83,0.00,,OVC065,0.00,VWS V14.01,2013-09-10 04:46:00,
2013-09-10 00:51:00,59.7,54.9,30.18,ESE,116,0.0,0.0,84,0.00,,OVC065,0.00,VWS V14.01,2013-09-10 04:51:00,
2013-09-10 00:56:00,59.9,55.1,30.18,ESE,116,0.0,0.0,84,0.00,,OVC065,0.00,VWS V14.01,2013-09-10 04:56:00,
2013-09-10 01:01:00,60.1,55.3,30.18,ESE,116,0.0,0.0,84,0.00,,OVC065,0.00,VWS V14.01,2013-09-10 05:01:00,
2013-09-10 01:06:00,60.1,55.3,30.18,ESE,116,0.0,0.0,84,0.00,,OVC065,0.00,VWS V14.01,2013-09-10 05:06:00,
2013-09-10 01:11:00,60.4,55.6,30.18,ESE,116,0.0,0.0,84,0.00,,OVC065,0.00,VWS V14.01,2013-09-10 05:11:00,
2013-09-10 01:16:00,60.4,55.6,30.18,ESE,116,0.0,0.0,84,0.00,,OVC065,0.00,VWS V14.01,2013-09-10 05:16:00,
2013-09-10 01:21:00,60.6,55.8,30.18,ESE,116,0.0,0.0,84,0.00,,OVC065,0.00,VWS V14.01,2013-09-10 05:21:00,
2013-09-10 01:26:00,60.8,55.8,30.18,ESE,116,0.0,0.0,83,0.00,,OVC065,0.00,VWS V14.01,2013-09-10 05:26:00,
2013-09-10 01:31:00,60.8,55.8,30.18,ESE,116,0.0,0.0,83,0.00,,OVC065,0.00,VWS V14.01,2013-09-10 05:31:00,
2013-09-10 01:36:00,61.0,56.0,30.18,ESE,116,0.0,0.0,83,0.00,,OVC065,0.00,VWS V14.01,2013-09-10 05:36:00,
2013-09-10 01:41:00,61.0,56.0,30.18,ESE,116,0.0,0.0,83,0.00,,OVC065,0.00,VWS V14.01,2013-09-10 05:41:00,
2013-09-10 01:46:00,61.2,56.3,30.18,ESE,116,0.0,0.0,84,0.00,,OVC065,0.00,VWS V14.01,2013-09-10 05:46:00,
2013-09-10 01:51:00,61.3,56.5,30.18,ESE,116,0.0,0.0,84,0.00,,OVC065,0.00,VWS V14.01,2013-09-10 05:51:00,
2013-09-10 01:56:00,61.5,56.7,30.18,ESE,116,0.0,0.0,84,0.00,,OVC065,0.00,VWS V14.01,2013-09-10 05:56:00,
2013-09-10 02:01:00,61.5,56.9,30.18,ESE,116,0.0,0.0,85,0.00,,OVC065,0.00,VWS V14.01,2013-09-10 06:01:00,
2013-09-10 02:06:00,61.7,57.1,30.18,ESE,116,0.0,0.0,85,0.00,,OVC065,0.00,VWS V14.01,2013-09-10 06:06:00,
2013-09-10 02:11:00,61.9,57.3,30.18,ESE,116,0.0,0.0,85,0.00,,OVC065,0.00,VWS V14.01,2013-09-10 06:11:00,
2013-09-10 02:16:00,61.9,57.3,30.18,ESE,116,0.0,0.0,85,0.00,,OVC065,0.00,VWS V14.01,2013-09-10 06:16:00,
2013-09-10 02:21:00,61.9,57.0,30.18,ESE,116,0.0,0.0,84,0.00,,OVC065,0.00,VWS V14.01,2013-09-10 06:21:00,
2013-09-10 02:26:00,61.9,57.0,30.18,ESE,116,0.0,0.0,84,0.00,,OVC065,0.00,VWS V14.01,2013-09-10 06:26:00,
2013-09-10 02:31:00,62.1,57.5,30.18,ESE,116,0.0,0.0,85,0.00,,OVC065,0.00,VWS V14.01,2013-09-10 06:31:00,
2013-09-10 02:36:00,62.1,57.5,30.18,ESE,116,0.0,0.0,85,0.00,,OVC065,0.00,VWS V14.01,2013-09-10 06:36:00,
2013-09-10 02:41:00,62.2,57.6,30.18,ESE,116,0.0,0.0,85,0.00,,OVC065,0.00,VWS V14.01,2013-09-10 06:41:00,
2013-09-10 02:46:00,62.2,57.6,30.18,ESE,116,0.0,0.0,85,0.00,,OVC065,0.00,VWS V14.01,2013-09-10 06:46:00,
2013-09-10 02:51:00,62.4,58.0,30.18,ESE,116,0.0,0.0,86,0.00,,OVC065,0.00,VWS V14.01,2013-09-10 06:51:00,
2013-09-10 02:56:00,62.6,58.0,30.18,ESE,116,0.0,0.0,85,0.00,,OVC065,0.00,VWS V14.01,2013-09-10 06:56:00,
2013-09-10 03:01:00,62.6,58.0,30.18,ESE,116,0.0,0.0,85,0.00,,OVC065,0.00,VWS V14.01,2013-09-10 07:01:00,
2013-09-10 03:06:00,62.8,57.9,30.18,ESE,116,0.0,0.0,84,0.00,,OVC065,0.00,VWS V14.01,2013-09-10 07:06:00,
2013-09-10 03:11:00,62.8,57.9,30.18,ESE,116,0.0,0.0,84,0.00,,OVC065,0.00,VWS V14.01,2013-09-10 07:11:00,
2013-09-10 03:16:00,62.8,57.9,30.18,ESE,116,0.0,0.0,84,0.00,,OVC065,0.00,VWS V14.01,2013-09-10 07:16:00,
2013-09-10 03:21:00,63.0,58.1,30.18,ESE,116,0.0,0.0,84,0.00,,OVC065,0.00,VWS V14.01,2013-09-10 07:21:00,
2013-09-10 03:26:00,63.0,58.3,30.15,ESE,116,0.0,0.0,85,0.00,,OVC065,0.00,VWS V14.01,2013-09-10 07:26:00,
2013-09-10 03:31:00,63.0,58.3,30.15,ESE,116,0.0,0.0,85,0.00,,OVC065,0.00,VWS V14.01,2013-09-10 07:31:00,
2013-09-10 03:36:00,63.0,58.1,30.15,ESE,116,0.0,0.0,84,0.00,,OVC065,0.00,VWS V14.01,2013-09-10 07:36:00,
2013-09-10 03:41:00,63.1,58.5,30.15,ESE,116,0.0,0.0,85,0.00,,OVC065,0.00,VWS V14.01,2013-09-10 07:41:00,
2013-09-10 03:46:00,63.1,58.5,30.15,ESE,116,0.0,0.0,85,0.00,,OVC065,0.00,VWS V14.01,2013-09-10 07:46:00,
2013-09-10 03:51:00,63.1,58.5,30.15,ESE,116,0.0,0.0,85,0.00,,OVC065,0.00,VWS V14.01,2013-09-10 07:51:00,
2013-09-10 03:56:00,63.3,58.7,30.15,ESE,116,0.0,0.0,85,0.00,,OVC065,0.00,VWS V14.01,2013-09-10 07:56:00,
2013-09-10 04:01:00,63.3,58.7,30.15,ESE,116,0.0,0.0,85,0.00,,OVC065,0.00,VWS V14.01,2013-09-10 08:01:00,
2013-09-10 04:06:00,63.5,58.9,30.15,ESE,116,0.0,0.0,85,0.00,,OVC065,0.00,VWS V14.01,2013-09-10 08:06:00,
2013-09-10 04:11:00,63.5,58.6,30.15,ESE,116,0.0,0.0,84,0.00,,OVC065,0.00,VWS V14.01,2013-09-10 08:11:00,
2013-09-10 04:16:00,63.7,58.8,30.15,ESE,116,0.0,0.0,84,0.00,,OVC065,0.00,VWS V14.01,2013-09-10 08:16:00,
2013-09-10 04:21:00,63.5,58.6,30.15,ESE,116,0.0,0.0,84,0.00,,OVC065,0.00,VWS V14.01,2013-09-10 08:21:00,
2013-09-10 04:26:00,63.5,58.6,30.15,ESE,116,0.0,0.0,84,0.00,,OVC065,0.00,VWS V14.01,2013-09-10 08:26:00,
2013-09-10 04:31:00,63.5,58.9,30.15,ESE,116,0.0,0.0,85,0.00,,OVC065,0.00,VWS V14.01,2013-09-10 08:31:00,
2013-09-10 04:36:00,63.5,58.9,30.15,ESE,116,0.0,0.0,85,0.00,,OVC065,0.00,VWS V14.01,2013-09-10 08:36:00,
2013-09-10 04:41:00,63.5,58.9,30.15,ESE,116,0.0,0.0,85,0.00,,OVC065,0.00,VWS V14.01,2013-09-10 08:41:00,
2013-09-10 04:46:00,63.7,59.0,30.15,ESE,116,0.0,0.0,85,0.00,,OVC065,0.00,VWS V14.01,2013-09-10 08:46:00,
2013-09-10 04:51:00,63.7,59.0,30.15,ESE,116,0.0,0.0,85,0.00,,OVC065,0.00,VWS V14.01,2013-09-10 08:51:00,
2013-09-10 04:56:00,63.7,59.0,30.15,ESE,116,0.0,0.0,85,0.00,,OVC065,0.00,VWS V14.01,2013-09-10 08:56:00,
2013-09-10 05:01:00,63.9,59.2,30.15,ESE,116,0.0,0.0,85,0.00,,OVC065,0.00,VWS V14.01,2013-09-10 09:01:00,
2013-09-10 05:06:00,63.9,59.0,30.15,ESE,116,0.0,0.0,84,0.00,,OVC065,0.00,VWS V14.01,2013-09-10 09:06:00,
2013-09-10 05:11:00,63.9,59.0,30.15,ESE,116,0.0,0.0,84,0.00,,OVC065,0.00,VWS V14.01,2013-09-10 09:11:00,
2013-09-10 05:16:00,63.9,59.2,30.15,ESE,116,0.0,0.0,85,0.00,,OVC065,0.00,VWS V14.01,2013-09-10 09:16:00,
2013-09-10 05:21:00,63.9,59.2,30.15,ESE,116,0.0,0.0,85,0.00,,OVC065,0.00,VWS V14.01,2013-09-10 09:21:00,
2013-09-10 05:26:00,63.9,59.2,30.15,ESE,116,0.0,0.0,85,0.00,,OVC065,0.00,VWS V14.01,2013-09-10 09:26:00,
2013-09-10 05:31:00,63.9,59.2,30.15,ESE,116,0.0,0.0,85,0.00,,OVC065,0.00,VWS V14.01,2013-09-10 09:31:00,
2013-09-10 05:36:00,63.9,59.2,30.15,ESE,116,0.0,0.0,85,0.00,,OVC065,0.00,VWS V14.01,2013-09-10 09:36:00,
2013-09-10 05:41:00,63.9,59.2,30.15,ESE,116,0.0,0.0,85,0.00,,OVC065,0.00,VWS V14.01,2013-09-10 09:41:00,
2013-09-10 05:46:00,64.0,59.6,30.15,ESE,116,0.0,0.0,86,0.00,,OVC065,0.00,VWS V14.01,2013-09-10 09:46:00,
2013-09-10 05:51:00,64.0,59.6,30.15,ESE,116,0.0,0.0,86,0.00,,OVC065,0.00,VWS V14.01,2013-09-10 09:51:00,
2013-09-10 05:56:00,63.9,59.4,30.15,ESE,116,0.0,0.0,86,0.00,,OVC065,0.00,VWS V14.01,2013-09-10 09:56:00,
2013-09-10 06:01:00,64.0,59.6,30.15,ESE,116,0.0,0.0,86,0.00,,OVC065,0.00,VWS V14.01,2013-09-10 10:01:00,
2013-09-10 06:06:00,64.0,59.6,30.15,ESE,116,0.0,0.0,86,0.00,,OVC065,0.00,VWS V14.01,2013-09-10 10:06:00,
2013-09-10 06:11:00,64.0,59.6,30.15,ESE,116,0.0,0.0,86,0.00,,OVC065,0.00,VWS V14.01,2013-09-10 10:11:00,
2013-09-10 06:16:00,64.0,59.6,30.15,ESE,116,0.0,0.0,86,0.00,,OVC065,0.00,VWS V14.01,2013-09-10 10:16:00,
2013-09-10 06:21:00,64.0,59.8,30.15,ESE,116,0.0,0.0,86,0.00,,OVC065,0.00,VWS V14.01,2013-09-10 10:21:00,
2013-09-10 06:26:00,63.9,59.7,30.15,ESE,116,0.0,0.0,86,0.04,,OVC065,0.04,VWS V14.01,2013-09-10 10:26:00,
2013-09-10 06:31:00,63.7,60.3,30.15,ESE,116,0.0,0.0,89,0.04,,OVC065,0.04,VWS V14.01,2013-09-10 10:31:00,
2013-09-10 06:36:00,63.5,61.0,30.15,ESE,116,0.0,0.0,92,0.04,,OVC065,0.04,VWS V14.01,2013-09-10 10:36:00,
2013-09-10 06:41:00,63.3,61.0,30.18,ESE,116,0.0,0.0,92,0.04,,OVC065,0.04,VWS V14.01,2013-09-10 10:41:00,
2013-09-10 06:46:00,63.3,61.2,30.18,ESE,116,0.0,0.0,93,0.04,,OVC065,0.04,VWS V14.01,2013-09-10 10:46:00,
2013-09-10 06:51:00,63.5,61.6,30.18,ESE,116,0.0,0.0,94,0.04,,OVC065,0.04,VWS V14.01,2013-09-10 10:51:00,
2013-09-10 06:56:00,63.5,61.6,30.18,ESE,116,0.0,0.0,94,0.04,,OVC065,0.04,VWS V14.01,2013-09-10 10:56:00,
2013-09-10 07:01:00,63.5,62.0,30.18,ESE,116,0.0,0.0,95,0.04,,OVC065,0.04,VWS V14.01,2013-09-10 11:01:00,
2013-09-10 07:06:00,63.5,62.2,30.18,ESE,116,0.0,0.0,96,0.04,,OVC065,0.04,VWS V14.01,2013-09-10 11:06:00,
2013-09-10 07:11:00,63.5,62.4,30.18,ESE,116,0.0,0.0,96,0.04,,OVC065,0.04,VWS V14.01,2013-09-10 11:11:00,
2013-09-10 07:16:00,63.7,62.8,30.18,ESE,116,0.0,0.0,97,0.04,,OVC065,0.04,VWS V14.01,2013-09-10 11:16:00,
2013-09-10 07:21:00,63.7,63.0,30.18,ESE,116,0.0,0.0,98,0.04,,OVC065,0.04,VWS V14.01,2013-09-10 11:21:00,
2013-09-10 07:26:00,63.9,63.6,30.15,ESE,116,0.0,0.0,99,0.04,,OVC065,0.04,VWS V14.01,2013-09-10 11:26:00,
2013-09-10 07:31:00,63.9,63.8,30.15,ESE,116,0.0,0.0,100,0.00,,OVC065,0.04,VWS V14.01,2013-09-10 11:31:00,
2013-09-10 07:36:00,63.9,63.9,30.15,ESE,116,0.0,0.0,100,0.00,,OVC065,0.04,VWS V14.01,2013-09-10 11:36:00,
2013-09-10 07:41:00,63.9,63.9,30.18,ESE,116,0.0,0.0,100,0.00,,OVC065,0.04,VWS V14.01,2013-09-10 11:41:00,
2013-09-10 07:46:00,64.0,64.0,30.18,ESE,116,0.0,0.0,100,0.00,,OVC065,0.04,VWS V14.01,2013-09-10 11:46:00,
2013-09-10 07:51:00,64.0,64.0,30.18,ESE,116,0.0,0.0,100,0.00,,OVC065,0.04,VWS V14.01,2013-09-10 11:51:00,
2013-09-10 07:56:00,64.2,64.2,30.15,ESE,116,0.0,0.0,100,0.00,,OVC065,0.04,VWS V14.01,2013-09-10 11:56:00,
2013-09-10 08:01:00,64.2,64.2,30.15,ESE,116,0.0,0.0,100,0.00,,OVC065,0.04,VWS V14.01,2013-09-10 12:01:00,
2013-09-10 08:06:00,64.2,64.2,30.15,ESE,116,0.0,0.0,100,0.00,,OVC065,0.04,VWS V14.01,2013-09-10 12:06:00,
2013-09-10 08:11:00,64.2,64.2,30.15,ESE,116,0.0,0.0,100,0.00,,OVC065,0.04,VWS V14.01,2013-09-10 12:11:00,
2013-09-10 08:16:00,64.2,64.2,30.15,ESE,116,0.0,0.0,100,0.00,,OVC065,0.04,VWS V14.01,2013-09-10 12:16:00,
2013-09-10 08:21:00,64.2,64.2,30.15,ESE,116,0.0,0.0,100,0.00,,OVC065,0.04,VWS V14.01,2013-09-10 12:21:00,
2013-09-10 08:26:00,64.4,64.4,30.15,ESE,116,0.0,0.0,100,0.00,,OVC065,0.04,VWS V14.01,2013-09-10 12:26:00,
2013-09-10 08:31:00,64.4,64.4,30.15,ESE,116,0.0,0.0,100,0.00,,OVC065,0.04,VWS V14.01,2013-09-10 12:31:00,
2013-09-10 08:36:00,64.4,64.4,30.15,ESE,116,0.0,0.0,100,0.00,,OVC065,0.04,VWS V14.01,2013-09-10 12:36:00,
2013-09-10 08:41:00,64.6,64.6,30.15,ESE,116,0.0,0.0,100,0.00,,OVC065,0.04,VWS V14.01,2013-09-10 12:41:00,
2013-09-10 08:46:00,64.6,64.6,30.15,ESE,116,0.0,0.0,100,0.00,,OVC065,0.04,VWS V14.01,2013-09-10 12:46:00,
2013-09-10 08:51:00,64.6,64.6,30.15,ESE,116,0.0,0.0,100,0.00,,OVC065,0.04,VWS V14.01,2013-09-10 12:51:00,
2013-09-10 08:56:00,64.6,64.6,30.15,ESE,116,0.0,0.0,100,0.00,,OVC065,0.04,VWS V14.01,2013-09-10 12:56:00,
2013-09-10 09:01:00,64.8,64.8,30.15,ESE,116,0.0,0.0,100,0.00,,OVC065,0.04,VWS V14.01,2013-09-10 13:01:00,
2013-09-10 09:06:00,64.8,64.8,30.15,ESE,116,0.0,0.0,100,0.00,,OVC065,0.04,VWS V14.01,2013-09-10 13:06:00,
2013-09-10 09:11:00,64.9,64.9,30.18,ESE,116,0.0,0.0,100,0.00,,OVC065,0.04,VWS V14.01,2013-09-10 13:11:00,
2013-09-10 09:16:00,65.1,65.1,30.18,ESE,116,0.0,0.0,100,0.00,,OVC065,0.04,VWS V14.01,2013-09-10 13:16:00,
2013-09-10 09:21:00,65.1,65.1,30.18,ESE,116,0.0,0.0,100,0.00,,OVC065,0.04,VWS V14.01,2013-09-10 13:21:00,
2013-09-10 09:26:00,65.3,65.3,30.18,ESE,116,0.0,0.0,100,0.00,,OVC065,0.04,VWS V14.01,2013-09-10 13:26:00,
2013-09-10 09:31:00,65.5,65.5,30.18,ESE,116,0.0,0.0,100,0.00,,OVC065,0.04,VWS V14.01,2013-09-10 13:31:00,
2013-09-10 09:36:00,65.5,65.5,30.18,ESE,116,0.0,0.0,100,0.00,,OVC065,0.04,VWS V14.01,2013-09-10 13:36:00,
2013-09-10 09:41:00,65.7,65.7,30.18,ESE,116,0.0,0.0,100,0.00,,OVC065,0.04,VWS V14.01,2013-09-10 13:41:00,
2013-09-10 09:46:00,65.8,65.8,30.18,ESE,116,0.0,0.0,100,0.00,,OVC065,0.04,VWS V14.01,2013-09-10 13:46:00,
2013-09-10 09:51:00,66.0,66.0,30.18,ESE,116,0.0,0.0,100,0.00,,OVC065,0.04,VWS V14.01,2013-09-10 13:51:00,
2013-09-10 09:56:00,66.0,66.0,30.18,ESE,116,0.0,0.0,100,0.00,,OVC065,0.04,VWS V14.01,2013-09-10 13:56:00,
2013-09-10 10:01:00,66.0,66.0,30.18,ESE,116,0.0,0.0,100,0.00,,OVC065,0.04,VWS V14.01,2013-09-10 14:01:00,
2013-09-10 10:06:00,66.0,66.0,30.18,ESE,116,0.0,0.0,100,0.00,,OVC065,0.04,VWS V14.01,2013-09-10 14:06:00,
2013-09-10 10:11:00,66.2,66.2,30.18,ESE,116,0.0,0.0,100,0.00,,OVC065,0.04,VWS V14.01,2013-09-10 14:11:00,
2013-09-10 10:16:00,66.4,66.4,30.18,ESE,116,0.0,0.0,100,0.00,,OVC065,0.04,VWS V14.01,2013-09-10 14:16:00,
2013-09-10 10:21:00,66.4,66.4,30.18,ESE,116,0.0,0.0,100,0.00,,OVC065,0.04,VWS V14.01,2013-09-10 14:21:00,
2013-09-10 10:26:00,66.6,66.6,30.18,ESE,116,0.0,0.0,100,0.00,,OVC065,0.04,VWS V14.01,2013-09-10 14:26:00,
2013-09-10 10:31:00,66.6,66.6,30.18,ESE,116,0.0,0.0,100,0.00,,OVC065,0.04,VWS V14.01,2013-09-10 14:31:00,
2013-09-10 10:36:00,66.9,66.9,30.18,ESE,116,0.0,0.0,100,0.00,,OVC065,0.04,VWS V14.01,2013-09-10 14:36:00,
2013-09-10 10:41:00,66.9,66.9,30.15,ESE,116,0.0,0.0,100,0.00,,OVC065,0.04,VWS V14.01,2013-09-10 14:41:00,
2013-09-10 10:46:00,66.9,66.9,30.15,ESE,116,0.0,0.0,100,0.00,,OVC065,0.04,VWS V14.01,2013-09-10 14:46:00,
2013-09-10 10:51:00,66.9,66.9,30.15,ESE,116,0.0,0.0,100,0.00,,OVC065,0.04,VWS V14.01,2013-09-10 14:51:00,
2013-09-10 10:56:00,67.1,67.1,30.18,ESE,116,0.0,0.0,100,0.00,,OVC065,0.04,VWS V14.01,2013-09-10 14:56:00,
2013-09-10 11:01:00,67.1,67.1,30.18,ESE,116,0.0,0.0,100,0.00,,OVC065,0.04,VWS V14.01,2013-09-10 15:01:00,
2013-09-10 11:06:00,67.3,67.3,30.18,ESE,116,0.0,0.0,100,0.00,,OVC065,0.04,VWS V14.01,2013-09-10 15:06:00,
2013-09-10 11:11:00,67.5,67.5,30.18,ESE,116,0.0,0.0,100,0.00,,OVC065,0.04,VWS V14.01,2013-09-10 15:11:00,
2013-09-10 11:16:00,67.6,67.6,30.18,ESE,116,0.0,0.0,100,0.00,,OVC065,0.04,VWS V14.01,2013-09-10 15:16:00,
2013-09-10 11:21:00,67.5,67.5,30.18,ESE,116,0.0,0.0,100,0.00,,OVC065,0.04,VWS V14.01,2013-09-10 15:21:00,
2013-09-10 11:26:00,67.5,67.5,30.18,ESE,116,0.0,0.0,100,0.00,,OVC065,0.04,VWS V14.01,2013-09-10 15:26:00,
2013-09-10 11:31:00,67.6,67.6,30.18,ESE,116,0.0,0.0,100,0.00,,OVC065,0.04,VWS V14.01,2013-09-10 15:31:00,
2013-09-10 11:36:00,67.6,67.6,30.18,ESE,116,0.0,0.0,100,0.00,,OVC065,0.04,VWS V14.01,2013-09-10 15:36:00,
2013-09-10 11:41:00,67.6,67.6,30.15,ESE,116,0.0,0.0,100,0.00,,OVC065,0.04,VWS V14.01,2013-09-10 15:41:00,
2013-09-10 11:46:00,67.6,67.6,30.15,ESE,116,0.0,0.0,100,0.00,,OVC065,0.04,VWS V14.01,2013-09-10 15:46:00,
2013-09-10 11:51:00,67.6,67.6,30.15,ESE,116,0.0,0.0,100,0.00,,OVC065,0.04,VWS V14.01,2013-09-10 15:51:00,
2013-09-10 11:56:00,67.6,67.6,30.18,ESE,116,0.0,0.0,100,0.00,,OVC065,0.04,VWS V14.01,2013-09-10 15:56:00,
2013-09-10 12:01:00,67.8,67.8,30.18,ESE,116,0.0,0.0,100,0.00,,OVC065,0.04,VWS V14.01,2013-09-10 16:01:00,
2013-09-10 12:06:00,67.8,67.8,30.18,ESE,116,0.0,0.0,100,0.00,,OVC065,0.04,VWS V14.01,2013-09-10 16:06:00,
2013-09-10 12:11:00,68.0,68.0,30.15,ESE,116,0.0,0.0,100,0.04,,OVC065,0.08,VWS V14.01,2013-09-10 16:11:00,
2013-09-10 12:16:00,68.2,68.2,30.15,ESE,116,0.0,0.0,100,0.04,,OVC065,0.08,VWS V14.01,2013-09-10 16:16:00,
2013-09-10 12:21:00,68.2,68.2,30.15,ESE,116,0.0,0.0,100,0.08,,OVC065,0.12,VWS V14.01,2013-09-10 16:21:00,
2013-09-10 12:26:00,68.0,68.0,30.12,ESE,116,0.0,0.0,100,0.08,,OVC065,0.12,VWS V14.01,2013-09-10 16:26:00,
2013-09-10 12:31:00,68.2,68.2,30.12,ESE,116,0.0,0.0,100,0.08,,OVC065,0.12,VWS V14.01,2013-09-10 16:31:00,
2013-09-10 12:36:00,68.2,68.2,30.12,ESE,116,0.0,0.0,100,0.08,,OVC065,0.12,VWS V14.01,2013-09-10 16:36:00,
2013-09-10 12:41:00,68.4,68.4,30.12,ESE,116,0.0,0.0,100,0.08,,OVC065,0.12,VWS V14.01,2013-09-10 16:41:00,
2013-09-10 12:46:00,68.5,68.5,30.12,ESE,116,0.0,0.0,100,0.08,,OVC065,0.12,VWS V14.01,2013-09-10 16:46:00,
2013-09-10 12:51:00,68.7,68.7,30.12,ESE,116,0.0,0.0,100,0.08,,OVC065,0.12,VWS V14.01,2013-09-10 16:51:00,
2013-09-10 12:56:00,68.9,68.9,30.09,ESE,116,0.0,0.0,100,0.08,,OVC065,0.12,VWS V14.01,2013-09-10 16:56:00,
2013-09-10 13:01:00,69.1,69.1,30.09,ESE,116,0.0,0.0,100,0.08,,OVC065,0.12,VWS V14.01,2013-09-10 17:01:00,
2013-09-10 13:06:00,69.1,69.1,30.09,ESE,116,0.0,0.0,100,0.08,,OVC065,0.12,VWS V14.01,2013-09-10 17:06:00,
2013-09-10 13:11:00,69.6,69.6,30.09,East,93,0.0,0.0,100,0.04,,OVC065,0.12,VWS V14.01,2013-09-10 17:11:00,
2013-09-10 13:16:00,70.3,70.3,30.09,East,93,0.0,0.0,100,0.04,,OVC065,0.12,VWS V14.01,2013-09-10 17:16:00,
2013-09-10 13:21:00,70.9,70.9,30.09,East,93,0.0,4.5,100,0.00,,OVC065,0.12,VWS V14.01,2013-09-10 17:21:00,
2013-09-10 13:26:00,71.1,71.1,30.06,East,93,0.0,0.0,100,0.00,,OVC065,0.12,VWS V14.01,2013-09-10 17:26:00,
2013-09-10 13:31:00,71.1,71.1,30.06,East,93,0.0,0.0,100,0.00,,OVC065,0.12,VWS V14.01,2013-09-10 17:31:00,
2013-09-10 13:36:00,70.9,70.9,30.06,East,93,0.0,0.0,100,0.00,,OVC065,0.12,VWS V14.01,2013-09-10 17:36:00,
2013-09-10 13:41:00,70.9,70.9,30.06,East,92,0.0,0.0,100,0.00,,OVC065,0.12,VWS V14.01,2013-09-10 17:41:00,
2013-09-10 13:46:00,70.9,70.9,30.06,East,88,0.0,0.0,100,0.00,,OVC065,0.12,VWS V14.01,2013-09-10 17:46:00,
2013-09-10 13:51:00,71.1,71.1,30.06,East,88,0.0,0.0,100,0.00,,OVC065,0.12,VWS V14.01,2013-09-10 17:51:00,
2013-09-10 13:56:00,71.1,71.1,30.06,ENE,61,0.0,6.3,100,0.00,,OVC065,0.12,VWS V14.01,2013-09-10 17:56:00,
2013-09-10 14:01:00,71.2,71.2,30.06,ENE,61,0.0,0.0,100,0.00,,OVC065,0.12,VWS V14.01,2013-09-10 18:01:00,
2013-09-10 14:06:00,71.4,71.4,30.06,East,90,6.3,6.3,100,0.00,,OVC065,0.12,VWS V14.01,2013-09-10 18:06:00,
2013-09-10 14:11:00,71.4,71.4,30.09,East,98,0.0,0.0,100,0.00,,OVC065,0.12,VWS V14.01,2013-09-10 18:11:00,
2013-09-10 14:16:00,71.2,71.2,30.09,East,93,0.0,7.2,100,0.00,,OVC065,0.12,VWS V14.01,2013-09-10 18:16:00,
2013-09-10 14:21:00,71.2,71.2,30.09,East,87,0.0,0.0,100,0.00,,OVC065,0.12,VWS V14.01,2013-09-10 18:21:00,
2013-09-10 14:26:00,71.4,71.4,30.09,East,87,0.0,0.0,100,0.00,,OVC065,0.12,VWS V14.01,2013-09-10 18:26:00,
2013-09-10 14:31:00,71.6,71.6,30.09,ESE,105,0.0,0.0,100,0.00,,OVC065,0.12,VWS V14.01,2013-09-10 18:31:00,
2013-09-10 14:36:00,71.8,71.8,30.09,ENE,77,0.0,0.0,100,0.00,,OVC065,0.12,VWS V14.01,2013-09-10 18:36:00,
2013-09-10 14:41:00,71.8,71.8,30.09,East,86,0.0,0.0,100,0.00,,OVC065,0.12,VWS V14.01,2013-09-10 18:41:00,
2013-09-10 14:46:00,72.0,72.0,30.09,East,87,0.0,0.0,100,0.00,,OVC065,0.12,VWS V14.01,2013-09-10 18:46:00,
2013-09-10 14:51:00,72.1,72.2,30.09,East,100,0.0,5.4,100,0.00,,OVC065,0.12,VWS V14.01,2013-09-10 18:51:00,
2013-09-10 14:56:00,72.1,72.2,30.09,East,86,0.0,0.0,100,0.00,,OVC065,0.12,VWS V14.01,2013-09-10 18:56:00,
2013-09-10 15:01:00,72.1,72.2,30.09,ESE,106,0.0,4.5,100,0.00,,OVC065,0.12,VWS V14.01,2013-09-10 19:01:00,
2013-09-10 15:06:00,72.3,72.3,30.09,ESE,118,0.0,0.0,100,0.00,,OVC065,0.12,VWS V14.01,2013-09-10 19:06:00,
2013-09-10 15:11:00,72.5,72.5,30.09,East,81,0.0,0.0,100,0.00,,OVC065,0.12,VWS V14.01,2013-09-10 19:11:00,
2013-09-10 15:16:00,72.3,72.2,30.09,ESE,103,0.0,4.5,100,0.00,,OVC065,0.12,VWS V14.01,2013-09-10 19:16:00,
2013-09-10 15:21:00,72.5,71.6,30.09,East,90,0.0,0.0,97,0.00,,OVC065,0.12,VWS V14.01,2013-09-10 19:21:00,
2013-09-10 15:26:00,72.5,71.2,30.09,SE,126,0.0,0.0,96,0.00,,OVC065,0.12,VWS V14.01,2013-09-10 19:26:00,
2013-09-10 15:31:00,72.7,71.2,30.09,ESE,112,0.0,0.0,95,0.00,,OVC065,0.12,VWS V14.01,2013-09-10 19:31:00,
2013-09-10 15:36:00,72.9,71.1,30.09,East,83,0.0,0.0,94,0.00,,OVC065,0.12,VWS V14.01,2013-09-10 19:36:00,
2013-09-10 15:41:00,72.9,70.9,30.09,SE,133,0.0,0.0,94,0.00,,OVC065,0.12,VWS V14.01,2013-09-10 19:41:00,
2013-09-10 15:46:00,72.9,70.3,30.09,ESE,110,0.0,0.0,92,0.00,,OVC065,0.12,VWS V14.01,2013-09-10 19:46:00,
2013-09-10 15:51:00,73.0,70.4,30.09,ESE,110,0.0,0.0,92,0.00,,OVC065,0.12,VWS V14.01,2013-09-10 19:51:00,
2013-09-10 15:56:00,73.0,70.2,30.09,ESE,102,0.0,0.0,91,0.00,,OVC065,0.12,VWS V14.01,2013-09-10 19:56:00,
2013-09-10 16:01:00,72.9,69.4,30.09,East,93,0.0,0.0,89,0.00,,OVC065,0.12,VWS V14.01,2013-09-10 20:01:00,
2013-09-10 16:06:00,72.9,69.4,30.09,East,83,0.0,0.0,89,0.00,,OVC065,0.12,VWS V14.01,2013-09-10 20:06:00,
2013-09-10 16:11:00,72.7,69.2,30.09,ESE,104,0.0,7.2,89,0.00,,OVC065,0.12,VWS V14.01,2013-09-10 20:11:00,
2013-09-10 16:16:00,72.7,69.2,30.09,ESE,104,0.0,0.0,89,0.00,,OVC065,0.12,VWS V14.01,2013-09-10 20:16:00,
2013-09-10 16:21:00,72.7,69.4,30.09,ESE,104,0.0,0.0,90,0.00,,OVC065,0.12,VWS V14.01,2013-09-10 20:21:00,
2013-09-10 16:26:00,72.5,69.5,30.09,ESE,104,0.0,0.0,90,0.00,,OVC065,0.12,VWS V14.01,2013-09-10 20:26:00,
2013-09-10 16:31:00,72.3,69.3,30.09,ESE,104,0.0,0.0,90,0.00,,OVC065,0.12,VWS V14.01,2013-09-10 20:31:00,
2013-09-10 16:36:00,72.3,69.3,30.09,East,88,0.0,0.0,90,0.00,,OVC065,0.12,VWS V14.01,2013-09-10 20:36:00,
2013-09-10 16:41:00,72.3,69.7,30.06,East,95,0.0,0.0,92,0.00,,OVC065,0.12,VWS V14.01,2013-09-10 20:41:00,
2013-09-10 16:46:00,72.3,69.7,30.06,East,95,0.0,0.0,92,0.00,,OVC065,0.12,VWS V14.01,2013-09-10 20:46:00,
2013-09-10 16:51:00,72.3,70.0,30.06,East,95,0.0,0.0,92,0.00,,OVC065,0.12,VWS V14.01,2013-09-10 20:51:00,
2013-09-10 16:56:00,72.3,70.2,30.06,East,95,0.0,0.0,93,0.00,,OVC065,0.12,VWS V14.01,2013-09-10 20:56:00,
2013-09-10 17:01:00,72.3,70.0,30.06,ENE,64,0.0,0.0,92,0.00,,OVC065,0.12,VWS V14.01,2013-09-10 21:01:00,
2013-09-10 17:06:00,72.3,70.0,30.06,ENE,64,0.0,0.0,92,0.00,,OVC065,0.12,VWS V14.01,2013-09-10 21:06:00,
2013-09-10 17:11:00,72.3,70.2,30.06,ENE,64,0.0,0.0,93,0.00,,OVC065,0.12,VWS V14.01,2013-09-10 21:11:00,
2013-09-10 17:16:00,72.3,70.4,30.06,ENE,64,0.0,0.0,94,0.00,,OVC065,0.12,VWS V14.01,2013-09-10 21:16:00,
2013-09-10 17:21:00,72.1,70.2,30.06,East,92,0.0,7.2,94,0.00,,OVC065,0.12,VWS V14.01,2013-09-10 21:21:00,
2013-09-10 17:26:00,72.3,70.2,30.06,East,92,0.0,0.0,93,0.00,,OVC065,0.12,VWS V14.01,2013-09-10 21:26:00,
2013-09-10 17:31:00,72.1,70.0,30.06,East,92,0.0,0.0,93,0.00,,OVC065,0.12,VWS V14.01,2013-09-10 21:31:00,
2013-09-10 17:36:00,72.0,69.8,30.06,ESE,111,0.0,0.0,93,0.00,,OVC065,0.12,VWS V14.01,2013-09-10 21:36:00,
2013-09-10 17:41:00,71.8,69.6,30.06,ESE,111,0.0,0.0,93,0.00,,OVC065,0.12,VWS V14.01,2013-09-10 21:41:00,
2013-09-10 17:46:00,71.6,69.5,30.06,East,101,0.0,0.0,93,0.00,,OVC065,0.12,VWS V14.01,2013-09-10 21:46:00,
2013-09-10 17:51:00,71.4,69.5,30.06,East,101,0.0,0.0,94,0.00,,OVC065,0.12,VWS V14.01,2013-09-10 21:51:00,
2013-09-10 17:56:00,71.6,69.9,30.06,East,101,0.0,0.0,94,0.00,,OVC065,0.12,VWS V14.01,2013-09-10 21:56:00,
2013-09-10 18:01:00,71.6,70.1,30.06,East,101,0.0,0.0,95,0.00,,OVC065,0.12,VWS V14.01,2013-09-10 22:01:00,
2013-09-10 18:06:00,71.6,70.1,30.06,ESE,102,0.0,0.0,95,0.00,,OVC065,0.12,VWS V14.01,2013-09-10 22:06:00,
2013-09-10 18:11:00,71.6,70.1,30.06,East,101,0.0,0.0,95,0.00,,OVC065,0.12,VWS V14.01,2013-09-10 22:11:00,
2013-09-10 18:16:00,71.6,70.3,30.06,East,101,0.0,0.0,96,0.00,,OVC065,0.12,VWS V14.01,2013-09-10 22:16:00,
2013-09-10 18:21:00,71.6,70.5,30.06,East,101,0.0,0.0,96,0.00,,OVC065,0.12,VWS V14.01,2013-09-10 22:21:00,
2013-09-10 18:26:00,71.6,70.5,30.06,East,101,0.0,0.0,96,0.00,,OVC065,0.12,VWS V14.01,2013-09-10 22:26:00,
2013-09-10 18:31:00,71.4,70.5,30.06,East,101,0.0,0.0,97,0.00,,OVC065,0.12,VWS V14.01,2013-09-10 22:31:00,
2013-09-10 18:36:00,71.4,70.7,30.06,East,101,0.0,0.0,98,0.00,,OVC065,0.12,VWS V14.01,2013-09-10 22:36:00,
2013-09-10 18:41:00,71.2,70.6,30.06,ESE,102,0.0,0.0,98,0.00,,OVC065,0.12,VWS V14.01,2013-09-10 22:41:00,
2013-09-10 18:46:00,71.2,70.6,30.06,East,101,0.0,0.0,98,0.00,,OVC065,0.12,VWS V14.01,2013-09-10 22:46:00,
2013-09-10 18:51:00,71.2,70.8,30.06,East,101,0.0,0.0,98,0.00,,OVC065,0.12,VWS V14.01,2013-09-10 22:51:00,
2013-09-10 18:56:00,71.1,70.6,30.09,ESE,102,0.0,0.0,98,0.00,,OVC065,0.12,VWS V14.01,2013-09-10 22:56:00,
2013-09-10 19:01:00,71.1,70.8,30.09,ESE,102,0.0,0.0,99,0.00,,OVC065,0.12,VWS V14.01,2013-09-10 23:01:00,
2013-09-10 19:05:00,71.1,70.8,30.09,East,101,0.0,0.0,99,0.00,,OVC065,0.12,VWS V14.01,2013-09-10 23:05:00,
2013-09-10 19:11:00,70.9,70.6,30.09,East,101,0.0,0.0,99,0.00,,OVC065,0.12,VWS V14.01,2013-09-10 23:11:00,
2013-09-10 19:15:00,70.7,70.6,30.09,East,101,0.0,0.0,100,0.00,,OVC065,0.12,VWS V14.01,2013-09-10 23:15:00,
2013-09-10 19:20:00,70.5,70.4,30.09,ESE,102,0.0,0.0,100,0.00,,OVC065,0.12,VWS V14.01,2013-09-10 23:20:00,
2013-09-10 19:25:00,70.5,70.4,30.09,East,101,0.0,0.0,100,0.00,,OVC065,0.12,VWS V14.01,2013-09-10 23:25:00,
2013-09-10 19:30:00,70.3,70.3,30.09,ESE,102,0.0,0.0,100,0.00,,OVC065,0.12,VWS V14.01,2013-09-10 23:30:00,
2013-09-10 19:35:00,70.2,70.2,30.09,East,101,0.0,0.0,100,0.00,,OVC065,0.12,VWS V14.01,2013-09-10 23:35:00,
2013-09-10 19:40:00,70.2,70.2,30.09,East,101,0.0,0.0,100,0.00,,OVC065,0.12,VWS V14.01,2013-09-10 23:40:00,
2013-09-10 19:45:00,70.2,70.2,30.09,East,101,0.0,0.0,100,0.00,,OVC065,0.12,VWS V14.01,2013-09-10 23:45:00,
2013-09-10 19:50:00,70.0,70.0,30.09,East,101,0.0,0.0,100,0.00,,OVC065,0.12,VWS V14.01,2013-09-10 23:50:00,
2013-09-10 19:55:00,70.0,70.0,30.09,East,101,0.0,0.0,100,0.00,,OVC065,0.12,VWS V14.01,2013-09-10 23:55:00,
2013-09-10 20:00:00,69.8,69.8,30.09,East,101,0.0,0.0,100,0.00,,OVC065,0.12,VWS V14.01,2013-09-11 00:00:00,
2013-09-10 20:05:00,69.8,69.8,30.09,East,101,0.0,0.0,100,0.00,,OVC065,0.12,VWS V14.01,2013-09-11 00:05:00,
2013-09-10 20:10:00,69.6,69.6,30.09,East,101,0.0,0.0,100,0.00,,OVC065,0.12,VWS V14.01,2013-09-11 00:10:00,
2013-09-10 20:15:00,69.6,69.6,30.09,ESE,102,0.0,0.0,100,0.00,,OVC065,0.12,VWS V14.01,2013-09-11 00:15:00,
2013-09-10 20:20:00,69.4,69.4,30.09,East,101,0.0,0.0,100,0.00,,OVC065,0.12,VWS V14.01,2013-09-11 00:20:00,
2013-09-10 20:25:00,69.4,69.4,30.09,East,101,0.0,0.0,100,0.00,,OVC065,0.12,VWS V14.01,2013-09-11 00:25:00,
2013-09-10 20:30:00,69.3,69.3,30.09,East,101,0.0,0.0,100,0.00,,OVC065,0.12,VWS V14.01,2013-09-11 00:30:00,
2013-09-10 20:35:00,69.3,69.3,30.09,East,101,0.0,0.0,100,0.00,,OVC065,0.12,VWS V14.01,2013-09-11 00:35:00,
2013-09-10 20:40:00,69.3,69.3,30.09,ESE,102,0.0,0.0,100,0.00,,OVC065,0.12,VWS V14.01,2013-09-11 00:40:00,
2013-09-10 20:45:00,69.3,69.3,30.09,East,101,0.0,0.0,100,0.00,,OVC065,0.12,VWS V14.01,2013-09-11 00:45:00,
2013-09-10 20:50:00,69.1,69.1,30.09,East,101,0.0,0.0,100,0.00,,OVC065,0.12,VWS V14.01,2013-09-11 00:50:00,
2013-09-10 20:55:00,69.1,69.1,30.09,East,101,0.0,0.0,100,0.00,,OVC065,0.12,VWS V14.01,2013-09-11 00:55:00,
2013-09-10 21:00:00,69.1,69.1,30.09,East,101,0.0,0.0,100,0.00,,OVC065,0.12,VWS V14.01,2013-09-11 01:00:00,
2013-09-10 21:05:00,68.9,68.9,30.09,East,101,0.0,0.0,100,0.00,,OVC065,0.12,VWS V14.01,2013-09-11 01:05:00,
2013-09-10 21:10:00,68.9,68.9,30.09,East,101,0.0,0.0,100,0.00,,OVC065,0.12,VWS V14.01,2013-09-11 01:10:00,
2013-09-10 21:15:00,68.9,68.9,30.09,East,101,0.0,0.0,100,0.00,,OVC065,0.12,VWS V14.01,2013-09-11 01:15:00,
2013-09-10 21:20:00,68.9,68.9,30.09,East,101,0.0,0.0,100,0.00,,OVC065,0.12,VWS V14.01,2013-09-11 01:20:00,
2013-09-10 21:25:00,68.9,68.9,30.09,East,101,0.0,0.0,100,0.00,,OVC065,0.12,VWS V14.01,2013-09-11 01:25:00,
2013-09-10 21:30:00,68.9,68.9,30.09,East,101,0.0,0.0,100,0.00,,OVC065,0.12,VWS V14.01,2013-09-11 01:30:00,
2013-09-10 21:35:00,68.9,68.9,30.09,East,101,0.0,0.0,100,0.00,,OVC065,0.12,VWS V14.01,2013-09-11 01:35:00,
2013-09-10 21:40:00,68.9,68.9,30.09,East,101,0.0,0.0,100,0.00,,OVC065,0.12,VWS V14.01,2013-09-11 01:40:00,
2013-09-10 21:45:00,68.9,68.9,30.09,ESE,102,0.0,0.0,100,0.00,,OVC065,0.12,VWS V14.01,2013-09-11 01:45:00,
2013-09-10 21:50:00,68.9,68.9,30.09,East,101,0.0,0.0,100,0.00,,OVC065,0.12,VWS V14.01,2013-09-11 01:50:00,
2013-09-10 21:55:00,68.9,68.9,30.09,East,101,0.0,0.0,100,0.00,,OVC065,0.12,VWS V14.01,2013-09-11 01:55:00,
2013-09-10 22:00:00,68.9,68.9,30.09,East,101,0.0,0.0,100,0.00,,OVC065,0.12,VWS V14.01,2013-09-11 02:00:00,
2013-09-10 22:05:00,68.9,68.9,30.09,East,101,0.0,0.0,100,0.00,,OVC065,0.12,VWS V14.01,2013-09-11 02:05:00,
2013-09-10 22:10:00,68.9,68.9,30.09,East,101,0.0,0.0,100,0.00,,OVC065,0.12,VWS V14.01,2013-09-11 02:10:00,
2013-09-10 22:15:00,68.9,68.9,30.09,East,101,0.0,0.0,100,0.00,,OVC065,0.12,VWS V14.01,2013-09-11 02:15:00,
2013-09-10 22:20:00,68.9,68.9,30.09,East,101,0.0,0.0,100,0.00,,OVC065,0.12,VWS V14.01,2013-09-11 02:20:00,
2013-09-10 22:25:00,68.7,68.7,30.09,East,101,0.0,0.0,100,0.00,,OVC065,0.12,VWS V14.01,2013-09-11 02:25:00,
2013-09-10 22:30:00,68.7,68.7,30.09,ESE,102,0.0,0.0,100,0.00,,OVC065,0.12,VWS V14.01,2013-09-11 02:30:00,
2013-09-10 22:35:00,68.7,68.7,30.09,East,101,0.0,0.0,100,0.00,,OVC065,0.12,VWS V14.01,2013-09-11 02:35:00,
2013-09-10 22:40:00,68.9,68.9,30.09,East,101,0.0,0.0,100,0.00,,OVC065,0.12,VWS V14.01,2013-09-11 02:40:00,
2013-09-10 22:45:00,68.9,68.9,30.09,East,101,0.0,0.0,100,0.00,,OVC065,0.12,VWS V14.01,2013-09-11 02:45:00,
2013-09-10 22:50:00,68.7,68.7,30.09,East,101,0.0,0.0,100,0.00,,OVC065,0.12,VWS V14.01,2013-09-11 02:50:00,
2013-09-10 22:55:00,68.7,68.7,30.09,East,101,0.0,0.0,100,0.00,,OVC065,0.12,VWS V14.01,2013-09-11 02:55:00,
2013-09-10 23:00:00,68.7,68.7,30.09,ESE,102,0.0,0.0,100,0.00,,OVC065,0.12,VWS V14.01,2013-09-11 03:00:00,
2013-09-10 23:05:00,68.7,68.7,30.09,East,101,0.0,0.0,100,0.00,,OVC065,0.12,VWS V14.01,2013-09-11 03:05:00,
2013-09-10 23:10:00,68.7,68.7,30.09,East,101,0.0,0.0,100,0.00,,OVC065,0.12,VWS V14.01,2013-09-11 03:10:00,
2013-09-10 23:15:00,68.7,68.7,30.09,East,101,0.0,0.0,100,0.00,,OVC065,0.12,VWS V14.01,2013-09-11 03:15:00,
2013-09-10 23:20:00,68.7,68.7,30.09,East,101,0.0,0.0,100,0.00,,OVC065,0.12,VWS V14.01,2013-09-11 03:20:00,
2013-09-10 23:25:00,68.5,68.5,30.09,East,101,0.0,0.0,100,0.00,,OVC065,0.12,VWS V14.01,2013-09-11 03:25:00,
2013-09-10 23:30:00,68.5,68.5,30.09,East,101,0.0,0.0,100,0.00,,OVC065,0.12,VWS V14.01,2013-09-11 03:30:00,
2013-09-10 23:35:00,68.5,68.5,30.09,East,101,0.0,0.0,100,0.00,,OVC065,0.12,VWS V14.01,2013-09-11 03:35:00,
2013-09-10 23:40:00,68.5,68.5,30.09,East,101,0.0,0.0,100,0.00,,OVC065,0.12,VWS V14.01,2013-09-11 03:40:00,
2013-09-10 23:45:00,68.5,68.5,30.09,East,101,0.0,0.0,100,0.00,,OVC065,0.12,VWS V14.01,2013-09-11 03:45:00,
2013-09-10 23:50:00,68.5,68.5,30.09,East,101,0.0,0.0,100,0.00,,OVC065,0.12,VWS V14.01,2013-09-11 03:50:00,
2013-09-10 23:55:00,68.4,68.4,30.09,East,101,0.0,0.0,100,0.00,,OVC065,0.12,VWS V14.01,2013-09-11 03:55:00,